Regional Weather Roundup
Issued by NWS

Home | Current Version | Previous Version | Graphics & Text | Print | Product List | Glossary On
Versions: 1 2 3 4 5 6 7 8 9 10 11 12 13 14 15 16 17 18 19 20 21 22 23 24 25 26 27 28
000
ASUS45 KBOU 010407
RWRCO

WEATHER ROUNDUP FOR COLORADO
NATIONAL WEATHER SERVICE DENVER/BOULDER CO
1000 PM MDT TUE MAY 31 2016

NOTE: "FAIR" INDICATES FEW OR NO CLOUDS BELOW 12000 FEET WITH NO
SIGNIFICANT WEATHER AND/OR OBSTRUCTIONS TO VISIBILITY.

COZ001>005-013-030-031-010500-
...NORTHWEST COLORADO...

CITY           SKY/WX    TMP DP  RH WIND       PRES   REMARKS
CRAIG          FAIR      49  42  77 CALM      30.11R
HAYDEN         FAIR      54  34  47 S7        30.13R
MEEKER         FAIR      56  36  47 SE5       30.11R
MOUNT WERNER   NOT AVBL
STEAMBOAT SPGS FAIR      51  35  53 SE6       30.14R
WALDEN         NOT AVBL
$$

COZ006>008-011-010500-
...WEST CENTRAL VALLEYS...

CITY           SKY/WX    TMP DP  RH WIND       PRES   REMARKS
GRAND JUNCTION FAIR      71  29  21 NE13      29.96R
MONTROSE       FAIR      63  34  33 CALM      30.04R
EAGLE          FAIR      59  30  33 E6        30.13R
RIFLE          FAIR      58  32  37 SW3       30.04R
DELTA          NOT AVBL
NUCLA          FAIR      63  30  29 E6        30.06R
$$

COZ017>023-064>068-010500-
...SOUTHWEST COLORADO...

CITY           SKY/WX    TMP DP  RH WIND       PRES   REMARKS
DURANGO        FAIR      60  30  32 N7        30.03R
CORTEZ         FAIR      62  33  33 E8        30.02R
PAGOSA SPRINGS CLOUDY    64  27  24 SE5       30.12R
TELLURIDE      FAIR      53  31  42 SE6       30.25R
WOLF CREEK PAS NOT AVBL
$$

COZ009-010-012-014-032>034-037-058>063-010500-
...CENTRAL COLORADO...

CITY           SKY/WX    TMP DP  RH WIND       PRES   REMARKS
ASPEN          FAIR      50  34  54 SW8       30.18R
BUENA VISTA    CLOUDY    54  40  59 NE6       30.23R
COPPER MTN     NOT AVBL
BERTHOUD PASS  HAZE      30  21  69 E8        30.44S VSB<1/4 WCI  23
COTTONWOOD PAS FAIR      48  37  66 CALM      30.33R
GUNNISON       FAIR      55  32  41 CALM      30.18R
KREMMLING      FAIR      52  32  46 N3        30.19R
LEADVILLE      FAIR      40  29  64 NE8       30.29R
MONARCH PASS   FOG       37  36  93 NE21G31   30.49R VSB<1/4
SALIDA         FAIR      56  45  67 N6        30.27R
SUNLIGHT       FAIR      45  28  53 NE3       30.38R
WILKERSON PASS SNOW      37  36  93 E8G17     30.40S VSB<1/4
$$

COZ069>075-010500-
...SAN LUIS VALLEY/SANGRE DE CRISTO MOUNTAINS...

CITY           SKY/WX    TMP DP  RH WIND       PRES   REMARKS
ALAMOSA        FAIR      56  41  57 SE10      30.13R
LA VETA PASS   CLOUDY    43  36  75 N3        30.31R
SAGUACHE       MOCLDY    54  36  50 SE7       30.19R
$$

COZ035-036-038>040-010500-
...NORTHERN COLORADO FRONT RANGE...

CITY           SKY/WX    TMP DP  RH WIND       PRES   REMARKS
DENVER INTL AP FAIR      54  50  86 E3        30.15R
DMNS CITY PARK   N/A     59  49  70 E3G14     30.14S
AURORA         MOCLDY    53  50  92 SE5       30.16R
FRONT RANGE AP NOT AVBL
ERIE MUNI ARPT CLOUDY    58  49  71 E6        30.15R
BOULDER MUN AP CLOUDY    59  46  63 CALM      30.15R
CENTENNIAL     MOCLDY    54  48  80 S5        30.16R
BROOMFIELD     MOCLDY    59  46  63 N6        30.16R
FORT COLLINS   FAIR      57  46  67 SE5       30.16R
LONGMONT       CLOUDY    59  51  74 E7        30.17R
$$

COZ041-046-047-076>085-087-088-010500-
...PIKES PEAK/PALMER DIVIDE AND SOUTHERN FOOTHILLS...

CITY           SKY/WX    TMP DP  RH WIND       PRES   REMARKS
COLO. SPRINGS  MOCLDY    54  48  80 NW7       30.16R
A. F. ACADEMY  MOCLDY    50  48  93 N7        30.17R
SCHRIEVER AFB  NOT AVBL
ELLICOTT       FAIR     N/A N/A N/A NE13      30.15R
FALCON         FAIR      49  47  90 NE7       30.20R
FORT CARSON    FAIR      52  47  85 N9        30.13R
LIMON          FAIR      51  49  92 E13       30.14S
MONUMENT HILL  LGT RAIN  46  46 100 NE3       30.21S
TRINIDAD       FAIR      57  40  52 S3        30.08R
$$

COZ042>045-048>051-090-091-010500-
...NORTHEAST COLORADO...

CITY           SKY/WX    TMP DP  RH WIND       PRES   REMARKS
GREELEY ARPT   MOCLDY    57  46  67 CALM      30.15R
AKRON          FAIR      56  49  77 E6        30.13R
BURLINGTON     LGT RAIN  59  50  72 N9        30.14R
WRAY           CLOUDY    61  50  67 CALM      30.10R
STERLING       FAIR      52  46  82 W5        30.11R
HOLYOKE        NOT AVBL
FORT MORGAN    MOCLDY    52  48  86 N7        30.13S
$$

COZ086-089-092>099-010500-
...SOUTHEAST COLORADO...

CITY           SKY/WX    TMP DP  RH WIND       PRES   REMARKS
PUEBLO         TSTM      56  52  86 SE8       30.10R
LA JUNTA       CLOUDY    67  52  58 E17       30.05R
LAMAR          FAIR      66  54  65 E15       30.03R
SPRINGFIELD      N/A     57  53  86 SE6       30.08R
$$




USA.gov is the U.S. government's official web portal to all federal, state and local government web resources and services.